owner,sensor,date,latitude,longitude,vertical_datum,sea_water_temperature,qcFlag
Chevron,ioos:station:wmo:42386:2,2021-06-01T00:00:00Z,27.3262,-90.7142,47.2,24.1,11111222
Chevron,ioos:station:wmo:42386:2,2021-06-01T00:20:00Z,27.3262,-90.7142,47.2,23.9,11111222
Chevron,ioos:station:wmo:42386:2,2021-06-01T00:40:00Z,27.3262,-90.7142,47.2,24.0,11111222
Chevron,ioos:station:wmo:42386:2,2021-06-01T01:00:00Z,27.3262,-90.7142,47.2,23.9,11111222
Chevron,ioos:station:wmo:42386:2,2021-06-01T01:20:00Z,27.3262,-90.7142,47.2,24.2,11111222
Chevron,ioos:station:wmo:42386:2,2021-06-01T01:40:00Z,27.3262,-90.7142,47.2,24.3,11111222
Chevron,ioos:station:wmo:42386:2,2021-06-01T02:00:00Z,27.3262,-90.7142,47.2,24.3,11111222
Chevron,ioos:station:wmo:42386:2,2021-06-01T02:20:00Z,27.3262,-90.7142,47.2,24.4,11111222
Chevron,ioos:station:wmo:42386:2,2021-06-01T02:40:00Z,27.3262,-90.7142,47.2,24.5,11111222
Chevron,ioos:station:wmo:42386:2,2021-06-01T03:00:00Z,27.3262,-90.7142,47.2,24.5,11111222
Chevron,ioos:station:wmo:42386:2,2021-06-01T03:20:00Z,27.3262,-90.7142,47.2,24.5,11111222
Chevron,ioos:station:wmo:42386:2,2021-06-01T03:40:00Z,27.3262,-90.7142,47.2,24.1,11111222
Chevron,ioos:station:wmo:42386:2,2021-06-01T04:00:00Z,27.3262,-90.7142,47.2,24.0,11111222
Chevron,ioos:station:wmo:42386:2,2021-06-01T04:20:00Z,27.3262,-90.7142,47.2,23.9,11111222
Chevron,ioos:station:wmo:42386:2,2021-06-01T04:40:00Z,27.3262,-90.7142,47.2,24.0,11111222
Chevron,ioos:station:wmo:42386:2,2021-06-01T05:00:00Z,27.3262,-90.7142,47.2,24.1,11111222
Chevron,ioos:station:wmo:42386:2,2021-06-01T05:20:00Z,27.3262,-90.7142,47.2,24.1,11111222
Chevron,ioos:station:wmo:42386:2,2021-06-01T05:40:00Z,27.3262,-90.7142,47.2,24.1,11111222
Chevron,ioos:station:wmo:42386:2,2021-06-01T06:00:00Z,27.3262,-90.7142,47.2,24.1,11111222
Chevron,ioos:station:wmo:42386:2,2021-06-01T06:20:00Z,27.3262,-90.7142,47.2,24.1,11111222
Chevron,ioos:station:wmo:42386:2,2021-06-01T06:40:00Z,27.3262,-90.7142,47.2,24.2,11111222
Chevron,ioos:station:wmo:42386:2,2021-06-01T07:00:00Z,27.3262,-90.7142,47.2,24.1,11111222
Chevron,ioos:station:wmo:42386:2,2021-06-01T07:20:00Z,27.3262,-90.7142,47.2,24.1,11111222
Chevron,ioos:station:wmo:42386:2,2021-06-01T07:40:00Z,27.3262,-90.7142,47.2,23.9,11111222
Chevron,ioos:station:wmo:42386:2,2021-06-01T08:00:00Z,27.3262,-90.7142,47.2,24.2,11111222
Chevron,ioos:station:wmo:42386:2,2021-06-01T08:20:00Z,27.3262,-90.7142,47.2,24.1,11111222
Chevron,ioos:station:wmo:42386:2,2021-06-01T08:40:00Z,27.3262,-90.7142,47.2,23.8,11111222
Chevron,ioos:station:wmo:42386:2,2021-06-01T09:00:00Z,27.3262,-90.7142,47.2,23.6,11111222
Chevron,ioos:station:wmo:42386:2,2021-06-01T09:20:00Z,27.3262,-90.7142,47.2,23.5,11111222
Chevron,ioos:station:wmo:42386:2,2021-06-01T09:40:00Z,27.3262,-90.7142,47.2,23.7,11111222
Chevron,ioos:station:wmo:42386:2,2021-06-01T10:00:00Z,27.3262,-90.7142,47.2,23.9,11111222
Chevron,ioos:station:wmo:42386:2,2021-06-01T10:20:00Z,27.3262,-90.7142,47.2,23.5,11111222
Chevron,ioos:station:wmo:42386:2,2021-06-01T10:40:00Z,27.3262,-90.7142,47.2,23.9,11111222
Chevron,ioos:station:wmo:42386:2,2021-06-01T11:00:00Z,27.3262,-90.7142,47.2,24.0,11111222
Chevron,ioos:station:wmo:42386:2,2021-06-01T11:20:00Z,27.3262,-90.7142,47.2,24.0,11111222
Chevron,ioos:station:wmo:42386:2,2021-06-01T11:40:00Z,27.3262,-90.7142,47.2,24.1,11111222
Chevron,ioos:station:wmo:42386:2,2021-06-01T12:00:00Z,27.3262,-90.7142,47.2,24.2,11111222
Chevron,ioos:station:wmo:42386:2,2021-06-01T12:20:00Z,27.3262,-90.7142,47.2,24.3,11111222
Chevron,ioos:station:wmo:42386:2,2021-06-01T12:40:00Z,27.3262,-90.7142,47.2,24.2,11111222
Chevron,ioos:station:wmo:42386:2,2021-06-01T13:00:00Z,27.3262,-90.7142,47.2,24.3,11111222
Chevron,ioos:station:wmo:42386:2,2021-06-01T13:20:00Z,27.3262,-90.7142,47.2,24.3,11111222
Chevron,ioos:station:wmo:42386:2,2021-06-01T13:40:00Z,27.3262,-90.7142,47.2,24.3,11111222
Chevron,ioos:station:wmo:42386:2,2021-06-01T14:00:00Z,27.3262,-90.7142,47.2,24.3,11111222
Chevron,ioos:station:wmo:42386:2,2021-06-01T14:20:00Z,27.3262,-90.7142,47.2,24.3,11111222
Chevron,ioos:station:wmo:42386:2,2021-06-01T14:40:00Z,27.3262,-90.7142,47.2,24.3,11111222
Chevron,ioos:station:wmo:42386:2,2021-06-01T15:00:00Z,27.3262,-90.7142,47.2,23.6,11111222
Chevron,ioos:station:wmo:42386:2,2021-06-01T15:20:00Z,27.3262,-90.7142,47.2,23.6,11111222
Chevron,ioos:station:wmo:42386:2,2021-06-01T15:40:00Z,27.3262,-90.7142,47.2,24.1,11111222
Chevron,ioos:station:wmo:42386:2,2021-06-01T16:00:00Z,27.3262,-90.7142,47.2,24.1,11111222
Chevron,ioos:station:wmo:42386:2,2021-06-01T16:20:00Z,27.3262,-90.7142,47.2,24.1,11111222
Chevron,ioos:station:wmo:42386:2,2021-06-01T16:40:00Z,27.3262,-90.7142,47.2,24.1,11111222
Chevron,ioos:station:wmo:42386:2,2021-06-01T17:00:00Z,27.3262,-90.7142,47.2,24.0,11111222
Chevron,ioos:station:wmo:42386:2,2021-06-01T17:20:00Z,27.3262,-90.7142,47.2,23.9,11111222
Chevron,ioos:station:wmo:42386:2,2021-06-01T17:40:00Z,27.3262,-90.7142,47.2,23.9,11111222
Chevron,ioos:station:wmo:42386:2,2021-06-01T18:00:00Z,27.3262,-90.7142,47.2,23.9,11111222
Chevron,ioos:station:wmo:42386:2,2021-06-01T18:20:00Z,27.3262,-90.7142,47.2,23.9,11111222
Chevron,ioos:station:wmo:42386:2,2021-06-01T18:40:00Z,27.3262,-90.7142,47.2,23.9,11111222
Chevron,ioos:station:wmo:42386:2,2021-06-01T19:00:00Z,27.3262,-90.7142,47.2,24.0,11111222
Chevron,ioos:station:wmo:42386:2,2021-06-01T19:20:00Z,27.3262,-90.7142,47.2,24.1,11111222
Chevron,ioos:station:wmo:42386:2,2021-06-01T19:40:00Z,27.3262,-90.7142,47.2,24.1,11111222
Chevron,ioos:station:wmo:42386:2,2021-06-01T20:00:00Z,27.3262,-90.7142,47.2,24.1,11111222
Chevron,ioos:station:wmo:42386:2,2021-06-01T20:20:00Z,27.3262,-90.7142,47.2,24.0,11111222
Chevron,ioos:station:wmo:42386:2,2021-06-01T20:40:00Z,27.3262,-90.7142,47.2,24.0,11111222
Chevron,ioos:station:wmo:42386:2,2021-06-01T21:00:00Z,27.3262,-90.7142,47.2,23.9,11111222
Chevron,ioos:station:wmo:42386:2,2021-06-01T21:20:00Z,27.3262,-90.7142,47.2,23.8,11111222
Chevron,ioos:station:wmo:42386:2,2021-06-01T21:40:00Z,27.3262,-90.7142,47.2,23.8,11111222
Chevron,ioos:station:wmo:42386:2,2021-06-01T22:00:00Z,27.3262,-90.7142,47.2,23.8,11111222
Chevron,ioos:station:wmo:42386:2,2021-06-01T22:20:00Z,27.3262,-90.7142,47.2,23.7,11111222
Chevron,ioos:station:wmo:42386:2,2021-06-01T22:40:00Z,27.3262,-90.7142,47.2,23.8,11111222
Chevron,ioos:station:wmo:42386:2,2021-06-01T23:00:00Z,27.3262,-90.7142,47.2,23.8,11111222
Chevron,ioos:station:wmo:42386:2,2021-06-01T23:20:00Z,27.3262,-90.7142,47.2,23.9,11111222
Chevron,ioos:station:wmo:42386:2,2021-06-01T23:40:00Z,27.3262,-90.7142,47.2,24.0,11111222
Chevron,ioos:station:wmo:42386:2,2021-06-02T00:00:00Z,27.3262,-90.7142,47.2,24.1,11111222
Chevron,ioos:station:wmo:42386:2,2021-06-02T00:20:00Z,27.3262,-90.7142,47.2,23.9,11111222
Chevron,ioos:station:wmo:42386:2,2021-06-02T00:40:00Z,27.3262,-90.7142,47.2,24.0,11111222
Chevron,ioos:station:wmo:42386:2,2021-06-02T01:00:00Z,27.3262,-90.7142,47.2,23.9,11111222
Chevron,ioos:station:wmo:42386:2,2021-06-02T01:20:00Z,27.3262,-90.7142,47.2,24.0,11111222
Chevron,ioos:station:wmo:42386:2,2021-06-02T01:40:00Z,27.3262,-90.7142,47.2,24.0,11111222
Chevron,ioos:station:wmo:42386:2,2021-06-02T02:00:00Z,27.3262,-90.7142,47.2,24.1,11111222
Chevron,ioos:station:wmo:42386:2,2021-06-02T02:19:00Z,27.3262,-90.7142,47.2,24.0,11111222
Chevron,ioos:station:wmo:42386:2,2021-06-02T02:39:00Z,27.3262,-90.7142,47.2,23.9,11111222
Chevron,ioos:station:wmo:42386:2,2021-06-02T02:59:00Z,27.3262,-90.7142,47.2,23.9,11111222
Chevron,ioos:station:wmo:42386:2,2021-06-02T03:19:00Z,27.3262,-90.7142,47.2,23.8,11111222
Chevron,ioos:station:wmo:42386:2,2021-06-02T03:39:00Z,27.3262,-90.7142,47.2,23.9,11111222
Chevron,ioos:station:wmo:42386:2,2021-06-02T03:59:00Z,27.3262,-90.7142,47.2,23.9,11111222
Chevron,ioos:station:wmo:42386:2,2021-06-02T04:19:00Z,27.3262,-90.7142,47.2,23.9,11111222
Chevron,ioos:station:wmo:42386:2,2021-06-02T04:39:00Z,27.3262,-90.7142,47.2,23.7,11111222
Chevron,ioos:station:wmo:42386:2,2021-06-02T04:59:00Z,27.3262,-90.7142,47.2,23.7,11111222
Chevron,ioos:station:wmo:42386:2,2021-06-02T05:19:00Z,27.3262,-90.7142,47.2,23.8,11111222
Chevron,ioos:station:wmo:42386:2,2021-06-02T05:39:00Z,27.3262,-90.7142,47.2,23.8,11111222
Chevron,ioos:station:wmo:42386:2,2021-06-02T05:59:00Z,27.3262,-90.7142,47.2,23.8,11111222
Chevron,ioos:station:wmo:42386:2,2021-06-02T06:19:00Z,27.3262,-90.7142,47.2,23.7,11111222
Chevron,ioos:station:wmo:42386:2,2021-06-02T06:39:00Z,27.3262,-90.7142,47.2,23.7,11111222
Chevron,ioos:station:wmo:42386:2,2021-06-02T06:59:00Z,27.3262,-90.7142,47.2,23.9,11111222
Chevron,ioos:station:wmo:42386:2,2021-06-02T07:19:00Z,27.3262,-90.7142,47.2,23.7,11111222
Chevron,ioos:station:wmo:42386:2,2021-06-02T07:39:00Z,27.3262,-90.7142,47.2,23.8,11111222
Chevron,ioos:station:wmo:42386:2,2021-06-02T07:59:00Z,27.3262,-90.7142,47.2,23.7,11111222
Chevron,ioos:station:wmo:42386:2,2021-06-02T08:19:00Z,27.3262,-90.7142,47.2,23.7,11111222
Chevron,ioos:station:wmo:42386:2,2021-06-02T08:39:00Z,27.3262,-90.7142,47.2,23.7,11111222
Chevron,ioos:station:wmo:42386:2,2021-06-02T08:59:00Z,27.3262,-90.7142,47.2,23.9,11111222
Chevron,ioos:station:wmo:42386:2,2021-06-02T09:19:00Z,27.3262,-90.7142,47.2,23.9,11111222
Chevron,ioos:station:wmo:42386:2,2021-06-02T09:39:00Z,27.3262,-90.7142,47.2,23.9,11111222
Chevron,ioos:station:wmo:42386:2,2021-06-02T09:59:00Z,27.3262,-90.7142,47.2,23.9,11111222
Chevron,ioos:station:wmo:42386:2,2021-06-02T10:19:00Z,27.3262,-90.7142,47.2,23.9,11111222
Chevron,ioos:station:wmo:42386:2,2021-06-02T10:39:00Z,27.3262,-90.7142,47.2,23.9,11111222
Chevron,ioos:station:wmo:42386:2,2021-06-02T10:59:00Z,27.3262,-90.7142,47.2,23.9,11111222
Chevron,ioos:station:wmo:42386:2,2021-06-02T11:19:00Z,27.3262,-90.7142,47.2,23.9,11111222
Chevron,ioos:station:wmo:42386:2,2021-06-02T11:39:00Z,27.3262,-90.7142,47.2,23.7,11111222
Chevron,ioos:station:wmo:42386:2,2021-06-02T11:59:00Z,27.3262,-90.7142,47.2,23.9,11111222
Chevron,ioos:station:wmo:42386:2,2021-06-02T12:19:00Z,27.3262,-90.7142,47.2,24.0,11111222
Chevron,ioos:station:wmo:42386:2,2021-06-02T12:39:00Z,27.3262,-90.7142,47.2,23.9,11111222
Chevron,ioos:station:wmo:42386:2,2021-06-02T12:59:00Z,27.3262,-90.7142,47.2,24.0,11111222
Chevron,ioos:station:wmo:42386:2,2021-06-02T13:19:00Z,27.3262,-90.7142,47.2,23.9,11111222
Chevron,ioos:station:wmo:42386:2,2021-06-02T13:39:00Z,27.3262,-90.7142,47.2,23.9,11111222
Chevron,ioos:station:wmo:42386:2,2021-06-02T13:59:00Z,27.3262,-90.7142,47.2,23.9,11111222
Chevron,ioos:station:wmo:42386:2,2021-06-02T14:19:00Z,27.3262,-90.7142,47.2,23.9,11111222
Chevron,ioos:station:wmo:42386:2,2021-06-02T14:39:00Z,27.3262,-90.7142,47.2,23.9,11111222
Chevron,ioos:station:wmo:42386:2,2021-06-02T14:59:00Z,27.3262,-90.7142,47.2,23.9,11111222
Chevron,ioos:station:wmo:42386:2,2021-06-02T15:19:00Z,27.3262,-90.7142,47.2,24.1,11111222
Chevron,ioos:station:wmo:42386:2,2021-06-02T15:39:00Z,27.3262,-90.7142,47.2,24.1,11111222
Chevron,ioos:station:wmo:42386:2,2021-06-02T15:59:00Z,27.3262,-90.7142,47.2,24.1,11111222
Chevron,ioos:station:wmo:42386:2,2021-06-02T16:19:00Z,27.3262,-90.7142,47.2,24.2,11111222
Chevron,ioos:station:wmo:42386:2,2021-06-02T16:39:00Z,27.3262,-90.7142,47.2,24.1,11111222
Chevron,ioos:station:wmo:42386:2,2021-06-02T16:59:00Z,27.3262,-90.7142,47.2,24.2,11111222
Chevron,ioos:station:wmo:42386:2,2021-06-02T17:19:00Z,27.3262,-90.7142,47.2,24.2,11111222
Chevron,ioos:station:wmo:42386:2,2021-06-02T17:39:00Z,27.3262,-90.7142,47.2,24.3,11111222
Chevron,ioos:station:wmo:42386:2,2021-06-02T17:59:00Z,27.3262,-90.7142,47.2,24.2,11111222
Chevron,ioos:station:wmo:42386:2,2021-06-02T18:19:00Z,27.3262,-90.7142,47.2,24.3,11111222
Chevron,ioos:station:wmo:42386:2,2021-06-02T18:39:00Z,27.3262,-90.7142,47.2,24.3,11111222
Chevron,ioos:station:wmo:42386:2,2021-06-02T18:59:00Z,27.3262,-90.7142,47.2,24.4,11111222
Chevron,ioos:station:wmo:42386:2,2021-06-02T19:19:00Z,27.3262,-90.7142,47.2,24.4,11111222
Chevron,ioos:station:wmo:42386:2,2021-06-02T19:39:00Z,27.3262,-90.7142,47.2,24.3,11111222
Chevron,ioos:station:wmo:42386:2,2021-06-02T19:59:00Z,27.3262,-90.7142,47.2,24.3,11111222
Chevron,ioos:station:wmo:42386:2,2021-06-02T20:19:00Z,27.3262,-90.7142,47.2,24.3,11111222
Chevron,ioos:station:wmo:42386:2,2021-06-02T20:39:00Z,27.3262,-90.7142,47.2,24.3,11111222
Chevron,ioos:station:wmo:42386:2,2021-06-02T20:59:00Z,27.3262,-90.7142,47.2,24.2,11111222
Chevron,ioos:station:wmo:42386:2,2021-06-02T21:19:00Z,27.3262,-90.7142,47.2,24.3,11111222
Chevron,ioos:station:wmo:42386:2,2021-06-02T21:39:00Z,27.3262,-90.7142,47.2,24.2,11111222
Chevron,ioos:station:wmo:42386:2,2021-06-02T21:59:00Z,27.3262,-90.7142,47.2,24.1,11111222
Chevron,ioos:station:wmo:42386:2,2021-06-02T22:19:00Z,27.3262,-90.7142,47.2,24.0,11111222
Chevron,ioos:station:wmo:42386:2,2021-06-02T22:39:00Z,27.3262,-90.7142,47.2,24.0,11111222
Chevron,ioos:station:wmo:42386:2,2021-06-02T22:59:00Z,27.3262,-90.7142,47.2,24.0,11111222
Chevron,ioos:station:wmo:42386:2,2021-06-02T23:19:00Z,27.3262,-90.7142,47.2,23.9,11111222
Chevron,ioos:station:wmo:42386:2,2021-06-02T23:39:00Z,27.3262,-90.7142,47.2,24.0,11111222
Chevron,ioos:station:wmo:42386:2,2021-06-02T23:59:00Z,27.3262,-90.7142,47.2,24.0,11111222
Chevron,ioos:station:wmo:42386:2,2021-06-03T00:19:00Z,27.3262,-90.7142,47.2,23.9,11111222
Chevron,ioos:station:wmo:42386:2,2021-06-03T00:39:00Z,27.3262,-90.7142,47.2,23.8,11111222
Chevron,ioos:station:wmo:42386:2,2021-06-03T00:59:00Z,27.3262,-90.7142,47.2,23.7,11111222
Chevron,ioos:station:wmo:42386:2,2021-06-03T01:19:00Z,27.3262,-90.7142,47.2,23.7,11111222
Chevron,ioos:station:wmo:42386:2,2021-06-03T01:39:00Z,27.3262,-90.7142,47.2,23.7,11111222
Chevron,ioos:station:wmo:42386:2,2021-06-03T01:59:00Z,27.3262,-90.7142,47.2,23.2,11111222
Chevron,ioos:station:wmo:42386:2,2021-06-03T02:19:00Z,27.3262,-90.7142,47.2,23.6,11111222
Chevron,ioos:station:wmo:42386:2,2021-06-03T02:39:00Z,27.3262,-90.7142,47.2,23.7,11111222
Chevron,ioos:station:wmo:42386:2,2021-06-03T02:59:00Z,27.3262,-90.7142,47.2,23.8,11111222
Chevron,ioos:station:wmo:42386:2,2021-06-03T03:19:00Z,27.3262,-90.7142,47.2,23.7,11111222
Chevron,ioos:station:wmo:42386:2,2021-06-03T03:39:00Z,27.3262,-90.7142,47.2,23.6,11111222
Chevron,ioos:station:wmo:42386:2,2021-06-03T03:59:00Z,27.3262,-90.7142,47.2,23.5,11111222
Chevron,ioos:station:wmo:42386:2,2021-06-03T04:19:00Z,27.3262,-90.7142,47.2,23.5,11111222
Chevron,ioos:station:wmo:42386:2,2021-06-03T04:39:00Z,27.3262,-90.7142,47.2,23.5,11111222
Chevron,ioos:station:wmo:42386:2,2021-06-03T04:59:00Z,27.3262,-90.7142,47.2,23.6,11111222
Chevron,ioos:station:wmo:42386:2,2021-06-03T05:19:00Z,27.3262,-90.7142,47.2,23.9,11111222
Chevron,ioos:station:wmo:42386:2,2021-06-03T05:39:00Z,27.3262,-90.7142,47.2,23.6,11111222
Chevron,ioos:station:wmo:42386:2,2021-06-03T05:59:00Z,27.3262,-90.7142,47.2,23.6,11111222
Chevron,ioos:station:wmo:42386:2,2021-06-03T06:19:00Z,27.3262,-90.7142,47.2,23.7,11111222
Chevron,ioos:station:wmo:42386:2,2021-06-03T06:39:00Z,27.3262,-90.7142,47.2,23.7,11111222
Chevron,ioos:station:wmo:42386:2,2021-06-03T06:59:00Z,27.3262,-90.7142,47.2,23.6,11111222
Chevron,ioos:station:wmo:42386:2,2021-06-03T07:19:00Z,27.3262,-90.7142,47.2,23.6,11111222
Chevron,ioos:station:wmo:42386:2,2021-06-03T07:39:00Z,27.3262,-90.7142,47.2,23.7,11111222
Chevron,ioos:station:wmo:42386:2,2021-06-03T07:59:00Z,27.3262,-90.7142,47.2,23.7,11111222
Chevron,ioos:station:wmo:42386:2,2021-06-03T08:19:00Z,27.3262,-90.7142,47.2,23.6,11111222
Chevron,ioos:station:wmo:42386:2,2021-06-03T08:39:00Z,27.3262,-90.7142,47.2,23.7,11111222
Chevron,ioos:station:wmo:42386:2,2021-06-03T08:59:00Z,27.3262,-90.7142,47.2,23.6,11111222
Chevron,ioos:station:wmo:42386:2,2021-06-03T09:19:00Z,27.3262,-90.7142,47.2,23.6,11111222
Chevron,ioos:station:wmo:42386:2,2021-06-03T09:39:00Z,27.3262,-90.7142,47.2,23.6,11111222
Chevron,ioos:station:wmo:42386:2,2021-06-03T09:59:00Z,27.3262,-90.7142,47.2,23.6,11111222
Chevron,ioos:station:wmo:42386:2,2021-06-03T10:19:00Z,27.3262,-90.7142,47.2,23.5,11111222
Chevron,ioos:station:wmo:42386:2,2021-06-03T10:39:00Z,27.3262,-90.7142,47.2,23.6,11111222
Chevron,ioos:station:wmo:42386:2,2021-06-03T10:59:00Z,27.3262,-90.7142,47.2,23.5,11111222
Chevron,ioos:station:wmo:42386:2,2021-06-03T11:19:00Z,27.3262,-90.7142,47.2,23.4,11111222
Chevron,ioos:station:wmo:42386:2,2021-06-03T11:39:00Z,27.3262,-90.7142,47.2,23.4,11111222
Chevron,ioos:station:wmo:42386:2,2021-06-03T11:59:00Z,27.3262,-90.7142,47.2,23.4,11111222
Chevron,ioos:station:wmo:42386:2,2021-06-03T12:19:00Z,27.3262,-90.7142,47.2,23.5,11111222
Chevron,ioos:station:wmo:42386:2,2021-06-03T12:39:00Z,27.3262,-90.7142,47.2,23.6,11111222
Chevron,ioos:station:wmo:42386:2,2021-06-03T12:59:00Z,27.3262,-90.7142,47.2,23.6,11111222
Chevron,ioos:station:wmo:42386:2,2021-06-03T13:19:00Z,27.3262,-90.7142,47.2,23.8,11111222
Chevron,ioos:station:wmo:42386:2,2021-06-03T13:39:00Z,27.3262,-90.7142,47.2,23.8,11111222
Chevron,ioos:station:wmo:42386:2,2021-06-03T13:59:00Z,27.3262,-90.7142,47.2,23.8,11111222
Chevron,ioos:station:wmo:42386:2,2021-06-03T14:19:00Z,27.3262,-90.7142,47.2,23.9,11111222
Chevron,ioos:station:wmo:42386:2,2021-06-03T14:39:00Z,27.3262,-90.7142,47.2,23.9,11111222
Chevron,ioos:station:wmo:42386:2,2021-06-03T14:59:00Z,27.3262,-90.7142,47.2,23.9,11111222
Chevron,ioos:station:wmo:42386:2,2021-06-03T15:19:00Z,27.3262,-90.7142,47.2,24.0,11111222
Chevron,ioos:station:wmo:42386:2,2021-06-03T15:39:00Z,27.3262,-90.7142,47.2,24.0,11111222
Chevron,ioos:station:wmo:42386:2,2021-06-03T15:59:00Z,27.3262,-90.7142,47.2,24.1,11111222
Chevron,ioos:station:wmo:42386:2,2021-06-03T16:19:00Z,27.3262,-90.7142,47.2,24.1,11111222
Chevron,ioos:station:wmo:42386:2,2021-06-03T16:39:00Z,27.3262,-90.7142,47.2,24.1,11111222
Chevron,ioos:station:wmo:42386:2,2021-06-03T16:59:00Z,27.3262,-90.7142,47.2,24.1,11111222
Chevron,ioos:station:wmo:42386:2,2021-06-03T17:19:00Z,27.3262,-90.7142,47.2,24.1,11111222
Chevron,ioos:station:wmo:42386:2,2021-06-03T17:39:00Z,27.3262,-90.7142,47.2,24.2,11111222
Chevron,ioos:station:wmo:42386:2,2021-06-03T17:59:00Z,27.3262,-90.7142,47.2,24.2,11111222
Chevron,ioos:station:wmo:42386:2,2021-06-03T18:19:00Z,27.3262,-90.7142,47.2,24.2,11111222
Chevron,ioos:station:wmo:42386:2,2021-06-03T18:39:00Z,27.3262,-90.7142,47.2,24.2,11111222
Chevron,ioos:station:wmo:42386:2,2021-06-03T18:59:00Z,27.3262,-90.7142,47.2,24.1,11111222
Chevron,ioos:station:wmo:42386:2,2021-06-03T19:19:00Z,27.3262,-90.7142,47.2,24.3,11111222
Chevron,ioos:station:wmo:42386:2,2021-06-03T19:39:00Z,27.3262,-90.7142,47.2,24.1,11111222
Chevron,ioos:station:wmo:42386:2,2021-06-03T19:59:00Z,27.3262,-90.7142,47.2,24.0,11111222
Chevron,ioos:station:wmo:42386:2,2021-06-03T20:19:00Z,27.3262,-90.7142,47.2,24.1,11111222
Chevron,ioos:station:wmo:42386:2,2021-06-03T20:39:00Z,27.3262,-90.7142,47.2,24.0,11111222
Chevron,ioos:station:wmo:42386:2,2021-06-03T20:59:00Z,27.3262,-90.7142,47.2,23.9,11111222
Chevron,ioos:station:wmo:42386:2,2021-06-03T21:19:00Z,27.3262,-90.7142,47.2,24.0,11111222
Chevron,ioos:station:wmo:42386:2,2021-06-03T21:39:00Z,27.3262,-90.7142,47.2,24.0,11111222
Chevron,ioos:station:wmo:42386:2,2021-06-03T21:59:00Z,27.3262,-90.7142,47.2,24.0,11111222
Chevron,ioos:station:wmo:42386:2,2021-06-03T22:19:00Z,27.3262,-90.7142,47.2,24.1,11111222
Chevron,ioos:station:wmo:42386:2,2021-06-03T22:39:00Z,27.3262,-90.7142,47.2,24.1,11111222
Chevron,ioos:station:wmo:42386:2,2021-06-03T22:59:00Z,27.3262,-90.7142,47.2,24.2,11111222
Chevron,ioos:station:wmo:42386:2,2021-06-03T23:19:00Z,27.3262,-90.7142,47.2,24.1,11111222
Chevron,ioos:station:wmo:42386:2,2021-06-03T23:39:00Z,27.3262,-90.7142,47.2,24.1,11111222
Chevron,ioos:station:wmo:42386:2,2021-06-03T23:59:00Z,27.3262,-90.7142,47.2,24.2,11111222
Chevron,ioos:station:wmo:42386:2,2021-06-04T00:19:00Z,27.3262,-90.7142,47.2,24.3,11111222
Chevron,ioos:station:wmo:42386:2,2021-06-04T00:39:00Z,27.3262,-90.7142,47.2,24.2,11111222
Chevron,ioos:station:wmo:42386:2,2021-06-04T00:59:00Z,27.3262,-90.7142,47.2,24.4,11111222
Chevron,ioos:station:wmo:42386:2,2021-06-04T01:19:00Z,27.3262,-90.7142,47.2,24.3,11111222
Chevron,ioos:station:wmo:42386:2,2021-06-04T01:39:00Z,27.3262,-90.7142,47.2,24.4,11111222
Chevron,ioos:station:wmo:42386:2,2021-06-04T01:59:00Z,27.3262,-90.7142,47.2,24.4,11111222
Chevron,ioos:station:wmo:42386:2,2021-06-04T02:19:00Z,27.3262,-90.7142,47.2,24.3,11111222
Chevron,ioos:station:wmo:42386:2,2021-06-04T02:39:00Z,27.3262,-90.7142,47.2,24.4,11111222
Chevron,ioos:station:wmo:42386:2,2021-06-04T02:59:00Z,27.3262,-90.7142,47.2,24.4,11111222
Chevron,ioos:station:wmo:42386:2,2021-06-04T03:19:00Z,27.3262,-90.7142,47.2,23.9,11111222
Chevron,ioos:station:wmo:42386:2,2021-06-04T03:39:00Z,27.3262,-90.7142,47.2,23.8,11111222
Chevron,ioos:station:wmo:42386:2,2021-06-04T03:59:00Z,27.3262,-90.7142,47.2,23.6,11111222
Chevron,ioos:station:wmo:42386:2,2021-06-04T04:19:00Z,27.3262,-90.7142,47.2,23.4,11111222
Chevron,ioos:station:wmo:42386:2,2021-06-04T04:39:00Z,27.3262,-90.7142,47.2,23.3,11111222
Chevron,ioos:station:wmo:42386:2,2021-06-04T04:59:00Z,27.3262,-90.7142,47.2,23.3,11111222
Chevron,ioos:station:wmo:42386:2,2021-06-04T05:19:00Z,27.3262,-90.7142,47.2,23.4,11111222
Chevron,ioos:station:wmo:42386:2,2021-06-04T05:39:00Z,27.3262,-90.7142,47.2,23.2,11111222
Chevron,ioos:station:wmo:42386:2,2021-06-04T05:59:00Z,27.3262,-90.7142,47.2,23.2,11111222
Chevron,ioos:station:wmo:42386:2,2021-06-04T06:19:00Z,27.3262,-90.7142,47.2,23.1,11111222
Chevron,ioos:station:wmo:42386:2,2021-06-04T06:39:00Z,27.3262,-90.7142,47.2,22.9,11111222
Chevron,ioos:station:wmo:42386:2,2021-06-04T06:59:00Z,27.3262,-90.7142,47.2,23.1,11111222
Chevron,ioos:station:wmo:42386:2,2021-06-04T07:19:00Z,27.3262,-90.7142,47.2,23.6,11111222
Chevron,ioos:station:wmo:42386:2,2021-06-04T07:39:00Z,27.3262,-90.7142,47.2,23.6,11111222
Chevron,ioos:station:wmo:42386:2,2021-06-04T07:59:00Z,27.3262,-90.7142,47.2,23.7,11111222
Chevron,ioos:station:wmo:42386:2,2021-06-04T08:19:00Z,27.3262,-90.7142,47.2,23.4,11111222
Chevron,ioos:station:wmo:42386:2,2021-06-04T08:39:00Z,27.3262,-90.7142,47.2,23.9,11111222
Chevron,ioos:station:wmo:42386:2,2021-06-04T08:59:00Z,27.3262,-90.7142,47.2,23.7,11111222
Chevron,ioos:station:wmo:42386:2,2021-06-04T09:19:00Z,27.3262,-90.7142,47.2,23.7,11111222
Chevron,ioos:station:wmo:42386:2,2021-06-04T09:39:00Z,27.3262,-90.7142,47.2,23.7,11111222
Chevron,ioos:station:wmo:42386:2,2021-06-04T09:59:00Z,27.3262,-90.7142,47.2,23.7,11111222
Chevron,ioos:station:wmo:42386:2,2021-06-04T10:19:00Z,27.3262,-90.7142,47.2,23.8,11111222
Chevron,ioos:station:wmo:42386:2,2021-06-04T10:39:00Z,27.3262,-90.7142,47.2,23.8,11111222
Chevron,ioos:station:wmo:42386:2,2021-06-04T10:59:00Z,27.3262,-90.7142,47.2,23.8,11111222
Chevron,ioos:station:wmo:42386:2,2021-06-04T11:19:00Z,27.3262,-90.7142,47.2,23.8,11111222
Chevron,ioos:station:wmo:42386:2,2021-06-04T11:39:00Z,27.3262,-90.7142,47.2,23.9,11111222
Chevron,ioos:station:wmo:42386:2,2021-06-04T11:59:00Z,27.3262,-90.7142,47.2,24.0,11111222
Chevron,ioos:station:wmo:42386:2,2021-06-04T12:19:00Z,27.3262,-90.7142,47.2,23.9,11111222
Chevron,ioos:station:wmo:42386:2,2021-06-04T12:39:00Z,27.3262,-90.7142,47.2,23.9,11111222
Chevron,ioos:station:wmo:42386:2,2021-06-04T12:59:00Z,27.3262,-90.7142,47.2,23.9,11111222
Chevron,ioos:station:wmo:42386:2,2021-06-04T13:19:00Z,27.3262,-90.7142,47.2,24.1,11111222
Chevron,ioos:station:wmo:42386:2,2021-06-04T13:39:00Z,27.3262,-90.7142,47.2,24.1,11111222
Chevron,ioos:station:wmo:42386:2,2021-06-04T13:59:00Z,27.3262,-90.7142,47.2,24.1,11111222
Chevron,ioos:station:wmo:42386:2,2021-06-04T14:19:00Z,27.3262,-90.7142,47.2,24.3,11111222
Chevron,ioos:station:wmo:42386:2,2021-06-04T14:39:00Z,27.3262,-90.7142,47.2,24.3,11111222
Chevron,ioos:station:wmo:42386:2,2021-06-04T14:59:00Z,27.3262,-90.7142,47.2,24.2,11111222